Wetterdaten: aktuell Samstag, 02.03.2024 17:45
Datum Zeit Temp. A. Feuchte A. Luftdruck Regen Wind Richtung Richtung Sonnenschein T Regen UV Solar Taupunkt Windchill Windben
02.03.2024 17:45 8,5 C 83 % 1005,4 hPa 0,0 mm 0,6 km/h (0 Bft) S-SW 213 0 min 0 min 0,0 UV-I 14 W/m 5,8 C 8,5 C 3,2 km/h (1 Bft)
02.03.2024 17:40 8,7 C 82 % 1005,4 hPa 0,0 mm 1,7 km/h (1 Bft) S-SW 213 0 min 0 min 0,0 UV-I 16 W/m 5,8 C 8,7 C 4,8 km/h (1 Bft)
02.03.2024 17:35 8,9 C 82 % 1005,2 hPa 0,0 mm 4,1 km/h (1 Bft) S 190 0 min 0 min 0,0 UV-I 21 W/m 6,0 C 8,9 C 6,4 km/h (2 Bft)
02.03.2024 17:30 9,1 C 81 % 1005,2 hPa 0,0 mm 2,7 km/h (1 Bft) S-SW 213 0 min 0 min 0,0 UV-I 28 W/m 6,0 C 9,1 C 6,4 km/h (2 Bft)
02.03.2024 17:25 9,3 C 81 % 1005,1 hPa 0,0 mm 4,4 km/h (1 Bft) S-SW 202 0 min 0 min 0,0 UV-I 42 W/m 6,2 C 9,3 C 9,7 km/h (2 Bft)
02.03.2024 17:20 9,4 C 81 % 1005,1 hPa 0,0 mm 3,5 km/h (1 Bft) S-SW 192 0 min 0 min 0,0 UV-I 49 W/m 6,3 C 9,4 C 6,4 km/h (2 Bft)
02.03.2024 17:15 9,6 C 80 % 1005,1 hPa 0,0 mm 4,5 km/h (1 Bft) S 190 0 min 0 min 0,0 UV-I 62 W/m 6,3 C 9,6 C 6,4 km/h (2 Bft)
02.03.2024 17:10 9,7 C 80 % 1005,1 hPa 0,0 mm 4,9 km/h (1 Bft) S 190 0 min 0 min 0,0 UV-I 76 W/m 6,4 C 9,7 C 9,7 km/h (2 Bft)
02.03.2024 17:05 9,8 C 80 % 1005,0 hPa 0,0 mm 4,6 km/h (1 Bft) S 177 0 min 0 min 0,0 UV-I 100 W/m 6,5 C 9,8 C 8,0 km/h (2 Bft)
02.03.2024 17:00 9,7 C 80 % 1005,0 hPa 0,0 mm 3,9 km/h (1 Bft) S-SW 198 0 min 0 min 0,0 UV-I 118 W/m 6,4 C 9,7 C 8,0 km/h (2 Bft)
02.03.2024 16:55 9,7 C 81 % 1005,0 hPa 0,0 mm 3,8 km/h (1 Bft) S 180 0 min 0 min 0,0 UV-I 125 W/m 6,6 C 9,7 C 8,0 km/h (2 Bft)
02.03.2024 16:50 9,7 C 80 % 1005,0 hPa 0,0 mm 3,9 km/h (1 Bft) S-SW 195 0 min 0 min 0,0 UV-I 120 W/m 6,4 C 9,7 C 6,4 km/h (2 Bft)
02.03.2024 16:45 9,8 C 80 % 1005,0 hPa 0,0 mm 1,3 km/h (1 Bft) S-SO 149 0 min 0 min 0,0 UV-I 90 W/m 6,5 C 9,8 C 4,8 km/h (1 Bft)
02.03.2024 16:40 9,9 C 79 % 1005,1 hPa 0,0 mm 1,9 km/h (1 Bft) S-SO 148 0 min 0 min 0,0 UV-I 67 W/m 6,4 C 9,9 C 4,8 km/h (1 Bft)
02.03.2024 16:35 10,0 C 79 % 1005,1 hPa 0,0 mm 2,3 km/h (1 Bft) S 180 0 min 0 min 0,0 UV-I 63 W/m 6,5 C 10,0 C 4,8 km/h (1 Bft)
02.03.2024 16:30 10,2 C 78 % 1005,2 hPa 0,0 mm 3,4 km/h (1 Bft) S 189 0 min 0 min 0,0 UV-I 65 W/m 6,5 C 10,2 C 8,0 km/h (2 Bft)
02.03.2024 16:25 10,3 C 77 % 1005,3 hPa 0,0 mm 3,3 km/h (1 Bft) S 186 0 min 0 min 0,0 UV-I 65 W/m 6,4 C 10,3 C 6,4 km/h (2 Bft)
02.03.2024 16:20 10,3 C 77 % 1005,3 hPa 0,0 mm 3,5 km/h (1 Bft) S 170 0 min 0 min 0,0 UV-I 65 W/m 6,4 C 10,3 C 8,0 km/h (2 Bft)
02.03.2024 16:15 10,4 C 77 % 1005,2 hPa 0,0 mm 3,1 km/h (1 Bft) SO 140 0 min 0 min 0,0 UV-I 65 W/m 6,5 C 10,4 C 4,8 km/h (1 Bft)
02.03.2024 16:10 10,6 C 76 % 1005,3 hPa 0,0 mm 4,5 km/h (1 Bft) S-SO 168 0 min 0 min 0,0 UV-I 67 W/m 6,5 C 10,6 C 8,0 km/h (2 Bft)
02.03.2024 16:05 10,7 C 76 % 1005,4 hPa 0,0 mm 2,5 km/h (1 Bft) S-SO 153 0 min 0 min 0,0 UV-I 70 W/m 6,6 C 10,7 C 4,8 km/h (1 Bft)
02.03.2024 16:00 10,8 C 76 % 1005,4 hPa 0,0 mm 2,9 km/h (1 Bft) S-SO 150 0 min 0 min 0,0 UV-I 76 W/m 6,7 C 10,8 C 4,8 km/h (1 Bft)
02.03.2024 15:55 10,9 C 75 % 1005,4 hPa 0,0 mm 2,0 km/h (1 Bft) S-SO 150 0 min 0 min 0,0 UV-I 79 W/m 6,6 C 10,9 C 3,2 km/h (1 Bft)
02.03.2024 15:50 11,1 C 74 % 1005,5 hPa 0,0 mm 2,6 km/h (1 Bft) S-SO 150 0 min 0 min 0,0 UV-I 77 W/m 6,6 C 11,1 C 4,8 km/h (1 Bft)
02.03.2024 15:45 11,1 C 74 % 1005,5 hPa 0,0 mm 3,7 km/h (1 Bft) S-SO 168 0 min 0 min 0,0 UV-I 79 W/m 6,6 C 11,1 C 6,4 km/h (2 Bft)
02.03.2024 15:40 11,2 C 74 % 1005,4 hPa 0,0 mm 4,1 km/h (1 Bft) SO 130 0 min 0 min 0,0 UV-I 91 W/m 6,7 C 11,2 C 12,9 km/h (3 Bft)
02.03.2024 15:35 11,2 C 72 % 1005,4 hPa 0,0 mm 4,2 km/h (1 Bft) SO 142 0 min 0 min 0,0 UV-I 100 W/m 6,3 C 11,2 C 9,7 km/h (2 Bft)
02.03.2024 15:30 11,3 C 73 % 1005,4 hPa 0,0 mm 6,0 km/h (2 Bft) S-SO 148 0 min 0 min 0,0 UV-I 118 W/m 6,6 C 11,3 C 11,3 km/h (2 Bft)
02.03.2024 15:25 11,4 C 73 % 1005,5 hPa 0,0 mm 5,3 km/h (1 Bft) SO 126 0 min 0 min 0,0 UV-I 142 W/m 6,7 C 11,4 C 9,7 km/h (2 Bft)
02.03.2024 15:20 11,5 C 73 % 1005,5 hPa 0,0 mm 6,0 km/h (2 Bft) O-SO 110 5 min 0 min 0,0 UV-I 197 W/m 6,8 C 11,5 C 12,9 km/h (3 Bft)
02.03.2024 15:15 11,6 C 72 % 1005,5 hPa 0,0 mm 5,6 km/h (1 Bft) S-SO 150 5 min 0 min 0,0 UV-I 181 W/m 6,7 C 11,6 C 11,3 km/h (2 Bft)
02.03.2024 15:10 11,7 C 72 % 1005,5 hPa 0,0 mm 4,3 km/h (1 Bft) SO 136 5 min 0 min 0,0 UV-I 306 W/m 6,8 C 11,7 C 11,3 km/h (2 Bft)
02.03.2024 15:05 11,6 C 74 % 1005,6 hPa 0,0 mm 3,0 km/h (1 Bft) SO 130 5 min 0 min 0,0 UV-I 352 W/m 7,1 C 11,6 C 6,4 km/h (2 Bft)
02.03.2024 15:00 11,4 C 74 % 1005,6 hPa 0,0 mm 6,1 km/h (2 Bft) S-SO 147 5 min 0 min 0,0 UV-I 366 W/m 6,9 C 11,4 C 11,3 km/h (2 Bft)
02.03.2024 14:55 11,3 C 75 % 1005,6 hPa 0,0 mm 2,2 km/h (1 Bft) S 183 5 min 0 min 0,5 UV-I 352 W/m 7,0 C 11,3 C 6,4 km/h (2 Bft)
02.03.2024 14:50 11,2 C 73 % 1005,7 hPa 0,0 mm 3,4 km/h (1 Bft) S-SO 148 5 min 0 min 0,0 UV-I 206 W/m 6,5 C 11,2 C 8,0 km/h (2 Bft)
02.03.2024 14:45 11,3 C 73 % 1005,7 hPa 0,0 mm 5,2 km/h (1 Bft) S 169 5 min 0 min 0,0 UV-I 234 W/m 6,6 C 11,3 C 9,7 km/h (2 Bft)
02.03.2024 14:40 11,2 C 74 % 1005,7 hPa 0,0 mm 7,6 km/h (2 Bft) SO 138 5 min 0 min 0,5 UV-I 253 W/m 6,7 C 10,4 C 12,9 km/h (3 Bft)
02.03.2024 14:35 11,3 C 74 % 1005,7 hPa 0,0 mm 5,4 km/h (1 Bft) S-SO 155 5 min 0 min 0,5 UV-I 244 W/m 6,8 C 11,3 C 11,3 km/h (2 Bft)
02.03.2024 14:30 11,2 C 76 % 1005,7 hPa 0,0 mm 3,4 km/h (1 Bft) SO 133 5 min 0 min 0,5 UV-I 276 W/m 7,1 C 11,2 C 6,4 km/h (2 Bft)
02.03.2024 14:25 11,1 C 76 % 1005,8 hPa 0,0 mm 4,4 km/h (1 Bft) O-NO 64 5 min 0 min 0,5 UV-I 236 W/m 7,0 C 11,1 C 9,7 km/h (2 Bft)
02.03.2024 14:20 11,0 C 76 % 1005,8 hPa 0,0 mm 3,7 km/h (1 Bft) O-SO 117 5 min 0 min 0,5 UV-I 232 W/m 6,9 C 11,0 C 9,7 km/h (2 Bft)
02.03.2024 14:15 10,9 C 77 % 1005,9 hPa 0,0 mm 3,9 km/h (1 Bft) O 100 5 min 0 min 0,5 UV-I 244 W/m 7,0 C 10,9 C 11,3 km/h (2 Bft)
02.03.2024 14:10 10,8 C 78 % 1005,9 hPa 0,0 mm 1,5 km/h (1 Bft) SO 145 5 min 0 min 0,5 UV-I 269 W/m 7,1 C 10,8 C 6,4 km/h (2 Bft)
02.03.2024 14:05 10,8 C 77 % 1006,0 hPa 0,0 mm 3,3 km/h (1 Bft) S-SO 156 5 min 0 min 0,5 UV-I 185 W/m 6,9 C 10,8 C 9,7 km/h (2 Bft)
02.03.2024 14:00 10,7 C 79 % 1006,0 hPa 0,0 mm 0,3 km/h (0 Bft) SO 137 5 min 0 min 0,5 UV-I 214 W/m 7,2 C 10,7 C 4,8 km/h (1 Bft)
02.03.2024 13:55 10,5 C 78 % 1006,0 hPa 0,0 mm 2,9 km/h (1 Bft) O-NO 71 5 min 0 min 0,5 UV-I 211 W/m 6,8 C 10,5 C 4,8 km/h (1 Bft)
02.03.2024 13:50 10,4 C 79 % 1006,1 hPa 0,0 mm 3,4 km/h (1 Bft) O-SO 112 5 min 0 min 0,5 UV-I 211 W/m 6,9 C 10,4 C 6,4 km/h (2 Bft)
02.03.2024 13:45 10,3 C 79 % 1006,1 hPa 0,0 mm 3,2 km/h (1 Bft) O-SO 113 5 min 0 min 0,5 UV-I 221 W/m 6,8 C 10,3 C 6,4 km/h (2 Bft)
02.03.2024 13:40 10,3 C 79 % 1006,2 hPa 0,0 mm 3,9 km/h (1 Bft) O-NO 57 5 min 0 min 0,5 UV-I 179 W/m 6,8 C 10,3 C 9,7 km/h (2 Bft)
02.03.2024 13:35 10,3 C 79 % 1006,2 hPa 0,0 mm 3,4 km/h (1 Bft) O-SO 106 5 min 0 min 0,5 UV-I 197 W/m 6,8 C 10,3 C 9,7 km/h (2 Bft)
02.03.2024 13:30 10,2 C 80 % 1006,3 hPa 0,0 mm 4,6 km/h (1 Bft) O-NO 78 5 min 0 min 0,5 UV-I 188 W/m 6,9 C 10,2 C 8,0 km/h (2 Bft)
02.03.2024 13:25 10,0 C 79 % 1006,3 hPa 0,0 mm 5,9 km/h (2 Bft) O-SO 118 5 min 0 min 0,5 UV-I 176 W/m 6,5 C 10,0 C 12,9 km/h (3 Bft)
02.03.2024 13:20 9,9 C 80 % 1006,3 hPa 0,0 mm 6,1 km/h (2 Bft) SO 138 5 min 0 min 0,5 UV-I 156 W/m 6,6 C 9,9 C 11,3 km/h (2 Bft)
02.03.2024 13:15 9,9 C 80 % 1006,4 hPa 0,0 mm 6,1 km/h (2 Bft) SO 132 5 min 0 min 0,6 UV-I 188 W/m 6,6 C 9,9 C 11,3 km/h (2 Bft)
02.03.2024 13:10 10,1 C 79 % 1006,6 hPa 0,0 mm 6,2 km/h (2 Bft) SO 136 0 min 0 min 0,5 UV-I 149 W/m 6,6 C 10,1 C 11,3 km/h (2 Bft)
02.03.2024 13:05 10,2 C 78 % 1006,6 hPa 0,0 mm 8,0 km/h (2 Bft) S 176 5 min 0 min 0,6 UV-I 158 W/m 6,5 C 9,1 C 12,9 km/h (3 Bft)
02.03.2024 13:00 10,4 C 81 % 1006,7 hPa 0,0 mm 7,0 km/h (2 Bft) S-SO 153 5 min 0 min 0,9 UV-I 513 W/m 7,3 C 10,0 C 16,1 km/h (3 Bft)
02.03.2024 12:55 10,2 C 82 % 1006,8 hPa 0,0 mm 5,4 km/h (1 Bft) O 85 5 min 0 min 0,9 UV-I 304 W/m 7,3 C 10,2 C 14,5 km/h (3 Bft)
02.03.2024 12:50 10,1 C 83 % 1006,8 hPa 0,0 mm 4,7 km/h (1 Bft) S-SO 147 5 min 0 min 0,6 UV-I 295 W/m 7,3 C 10,1 C 11,3 km/h (2 Bft)
02.03.2024 12:45 10,1 C 81 % 1006,9 hPa 0,0 mm 5,1 km/h (1 Bft) O-SO 110 5 min 0 min 0,6 UV-I 211 W/m 7,0 C 10,1 C 11,3 km/h (2 Bft)
02.03.2024 12:40 9,7 C 81 % 1006,9 hPa 0,0 mm 1,0 km/h (0 Bft) O 84 5 min 0 min 0,7 UV-I 257 W/m 6,6 C 9,7 C 3,2 km/h (1 Bft)
02.03.2024 12:35 9,4 C 81 % 1006,9 hPa 0,0 mm 3,9 km/h (1 Bft) O-NO 65 5 min 0 min 0,7 UV-I 216 W/m 6,3 C 9,4 C 8,0 km/h (2 Bft)
02.03.2024 12:30 9,5 C 81 % 1007,0 hPa 0,0 mm 9,6 km/h (2 Bft) O-SO 119 5 min 0 min 0,7 UV-I 209 W/m 6,4 C 7,3 C 16,1 km/h (3 Bft)
02.03.2024 12:25 9,7 C 82 % 1007,0 hPa 0,0 mm 6,1 km/h (2 Bft) S-SO 154 5 min 0 min 0,7 UV-I 255 W/m 6,8 C 9,7 C 16,1 km/h (3 Bft)
02.03.2024 12:20 9,7 C 81 % 1007,0 hPa 0,0 mm 5,5 km/h (1 Bft) S-SO 163 5 min 0 min 0,9 UV-I 466 W/m 6,6 C 9,7 C 12,9 km/h (3 Bft)
02.03.2024 12:15 9,7 C 84 % 1007,1 hPa 0,0 mm 4,3 km/h (1 Bft) S 187 5 min 0 min 0,9 UV-I 396 W/m 7,1 C 9,7 C 8,0 km/h (2 Bft)
02.03.2024 12:10 9,2 C 85 % 1007,1 hPa 0,0 mm 4,2 km/h (1 Bft) S-SW 196 5 min 0 min 0,8 UV-I 341 W/m 6,8 C 9,2 C 9,7 km/h (2 Bft)
02.03.2024 12:05 8,9 C 84 % 1007,1 hPa 0,0 mm 4,0 km/h (1 Bft) S-SO 161 5 min 0 min 0,7 UV-I 274 W/m 6,3 C 8,9 C 11,3 km/h (2 Bft)
02.03.2024 12:00 8,9 C 84 % 1007,1 hPa 0,0 mm 7,3 km/h (2 Bft) O-SO 109 5 min 0 min 0,6 UV-I 237 W/m 6,3 C 8,2 C 12,9 km/h (3 Bft)
02.03.2024 11:55 8,8 C 84 % 1007,1 hPa 0,0 mm 7,8 km/h (2 Bft) SO 144 5 min 0 min 0,6 UV-I 229 W/m 6,2 C 7,7 C 12,9 km/h (3 Bft)
02.03.2024 11:50 8,8 C 86 % 1007,1 hPa 0,0 mm 4,3 km/h (1 Bft) S-SO 147 5 min 0 min 0,6 UV-I 220 W/m 6,6 C 8,8 C 11,3 km/h (2 Bft)
02.03.2024 11:45 8,7 C 84 % 1007,0 hPa 0,0 mm 4,8 km/h (1 Bft) SO 139 5 min 0 min 0,5 UV-I 214 W/m 6,2 C 8,7 C 9,7 km/h (2 Bft)
02.03.2024 11:40 8,6 C 84 % 1007,1 hPa 0,0 mm 6,0 km/h (2 Bft) S-SO 160 5 min 0 min 0,5 UV-I 214 W/m 6,1 C 8,6 C 11,3 km/h (2 Bft)
02.03.2024 11:35 8,7 C 85 % 1007,1 hPa 0,0 mm 5,1 km/h (1 Bft) S 182 5 min 0 min 0,5 UV-I 213 W/m 6,3 C 8,7 C 11,3 km/h (2 Bft)
02.03.2024 11:30 8,7 C 85 % 1007,2 hPa 0,0 mm 5,3 km/h (1 Bft) S-SO 150 5 min 0 min 0,5 UV-I 197 W/m 6,3 C 8,7 C 9,7 km/h (2 Bft)
02.03.2024 11:25 8,6 C 85 % 1007,3 hPa 0,0 mm 6,3 km/h (2 Bft) S 184 5 min 0 min 0,5 UV-I 188 W/m 6,2 C 8,6 C 9,7 km/h (2 Bft)
02.03.2024 11:20 8,6 C 85 % 1007,4 hPa 0,0 mm 5,2 km/h (1 Bft) S 183 5 min 0 min 0,0 UV-I 176 W/m 6,2 C 8,6 C 9,7 km/h (2 Bft)
02.03.2024 11:15 8,6 C 85 % 1007,5 hPa 0,0 mm 6,2 km/h (2 Bft) S-SW 194 5 min 0 min 0,0 UV-I 178 W/m 6,2 C 8,6 C 9,7 km/h (2 Bft)
02.03.2024 11:10 8,6 C 85 % 1007,4 hPa 0,0 mm 2,7 km/h (1 Bft) S 189 5 min 0 min 0,0 UV-I 162 W/m 6,2 C 8,6 C 8,0 km/h (2 Bft)
02.03.2024 11:05 8,6 C 86 % 1007,3 hPa 0,0 mm 4,4 km/h (1 Bft) S-SW 207 5 min 0 min 0,0 UV-I 158 W/m 6,4 C 8,6 C 9,7 km/h (2 Bft)
02.03.2024 11:00 8,6 C 85 % 1007,3 hPa 0,0 mm 6,5 km/h (2 Bft) S-SW 196 5 min 0 min 0,0 UV-I 163 W/m 6,2 C 8,5 C 11,3 km/h (2 Bft)
02.03.2024 10:55 8,7 C 85 % 1007,2 hPa 0,0 mm 6,3 km/h (2 Bft) S-SW 198 5 min 0 min 0,5 UV-I 193 W/m 6,3 C 8,7 C 12,9 km/h (3 Bft)
02.03.2024 10:50 8,9 C 84 % 1007,3 hPa 0,0 mm 5,0 km/h (1 Bft) S-SO 148 5 min 0 min 0,5 UV-I 214 W/m 6,3 C 8,9 C 11,3 km/h (2 Bft)
02.03.2024 10:45 9,2 C 86 % 1007,3 hPa 0,0 mm 4,8 km/h (1 Bft) SO 140 5 min 0 min 0,5 UV-I 232 W/m 7,0 C 9,2 C 9,7 km/h (2 Bft)
02.03.2024 10:40 9,0 C 88 % 1007,4 hPa 0,0 mm 2,5 km/h (1 Bft) S-SW 207 5 min 0 min 0,7 UV-I 603 W/m 7,1 C 9,0 C 6,4 km/h (2 Bft)
02.03.2024 10:35 8,7 C 88 % 1007,3 hPa 0,0 mm 3,0 km/h (1 Bft) S-SW 198 5 min 0 min 0,6 UV-I 360 W/m 6,8 C 8,7 C 6,4 km/h (2 Bft)
02.03.2024 10:30 8,4 C 89 % 1007,4 hPa 0,0 mm 4,6 km/h (1 Bft) W-SW 248 5 min 0 min 0,7 UV-I 255 W/m 6,7 C 8,4 C 12,9 km/h (3 Bft)
02.03.2024 10:25 8,1 C 90 % 1007,4 hPa 0,0 mm 3,8 km/h (1 Bft) S-SW 198 5 min 0 min 0,6 UV-I 362 W/m 6,6 C 8,1 C 8,0 km/h (2 Bft)
02.03.2024 10:20 7,8 C 92 % 1007,3 hPa 0,0 mm 1,6 km/h (1 Bft) O-SO 123 5 min 0 min 0,6 UV-I 450 W/m 6,6 C 7,8 C 4,8 km/h (1 Bft)
02.03.2024 10:15 7,4 C 93 % 1007,4 hPa 0,0 mm 1,7 km/h (1 Bft) SO 126 5 min 0 min 0,6 UV-I 424 W/m 6,3 C 7,4 C 4,8 km/h (1 Bft)
02.03.2024 10:10 7,1 C 94 % 1007,4 hPa 0,0 mm 2,9 km/h (1 Bft) O-SO 120 5 min 0 min 0,5 UV-I 313 W/m 6,2 C 7,1 C 6,4 km/h (2 Bft)
02.03.2024 10:05 6,8 C 96 % 1007,4 hPa 0,0 mm 1,0 km/h (0 Bft) O-NO 61 5 min 0 min 0,5 UV-I 292 W/m 6,2 C 6,8 C 4,8 km/h (1 Bft)
02.03.2024 10:00 6,4 C 96 % 1007,4 hPa 0,0 mm 2,7 km/h (1 Bft) O-NO 59 5 min 0 min 0,5 UV-I 316 W/m 5,8 C 6,4 C 6,4 km/h (2 Bft)
02.03.2024 09:55 6,1 C 97 % 1007,3 hPa 0,0 mm 0,2 km/h (0 Bft) O 82 5 min 0 min 0,0 UV-I 274 W/m 5,7 C 6,1 C 3,2 km/h (1 Bft)
02.03.2024 09:50 5,8 C 97 % 1007,3 hPa 0,0 mm 0,0 km/h (0 Bft) O 82 5 min 0 min 0,0 UV-I 158 W/m 5,4 C 5,8 C 0,0 km/h (0 Bft)
02.03.2024 09:45 5,7 C 97 % 1007,3 hPa 0,0 mm 0,4 km/h (0 Bft) O 82 0 min 0 min 0,0 UV-I 130 W/m 5,3 C 5,7 C 3,2 km/h (1 Bft)
02.03.2024 09:40 5,7 C 97 % 1007,3 hPa 0,0 mm 0,1 km/h (0 Bft) O 82 0 min 0 min 0,0 UV-I 111 W/m 5,3 C 5,7 C 1,6 km/h (1 Bft)
02.03.2024 09:35 5,6 C 97 % 1007,2 hPa 0,0 mm 1,4 km/h (1 Bft) O 82 0 min 0 min 0,0 UV-I 135 W/m 5,2 C 5,6 C 3,2 km/h (1 Bft)
02.03.2024 09:30 5,6 C 97 % 1007,2 hPa 0,0 mm 1,5 km/h (1 Bft) O 83 5 min 0 min 0,0 UV-I 165 W/m 5,2 C 5,6 C 3,2 km/h (1 Bft)
02.03.2024 09:25 5,2 C 97 % 1007,2 hPa 0,0 mm 0,0 km/h (0 Bft) O 83 5 min 0 min 0,0 UV-I 229 W/m 4,8 C 5,2 C 1,6 km/h (1 Bft)
02.03.2024 09:20 4,8 C 97 % 1007,2 hPa 0,0 mm 0,0 km/h (0 Bft) O 83 0 min 0 min 0,0 UV-I 128 W/m 4,4 C 4,8 C 0,0 km/h (0 Bft)
02.03.2024 09:15 4,6 C 97 % 1007,3 hPa 0,0 mm 0,0 km/h (0 Bft) O 83 0 min 0 min 0,0 UV-I 88 W/m 4,2 C 4,6 C 0,0 km/h (0 Bft)
02.03.2024 09:10 4,4 C 97 % 1007,3 hPa 0,0 mm 0,0 km/h (0 Bft) O 83 0 min 0 min 0,0 UV-I 72 W/m 4,0 C 4,4 C 0,0 km/h (0 Bft)
02.03.2024 09:05 4,3 C 97 % 1007,3 hPa 0,0 mm 0,0 km/h (0 Bft) O 83 0 min 0 min 0,0 UV-I 62 W/m 3,9 C 4,3 C 0,0 km/h (0 Bft)
02.03.2024 09:00 4,1 C 97 % 1007,3 hPa 0,0 mm 0,0 km/h (0 Bft) O 83 0 min 0 min 0,0 UV-I 54 W/m 3,7 C 4,1 C 0,0 km/h (0 Bft)
02.03.2024 08:55 4,1 C 97 % 1007,3 hPa 0,0 mm 0,0 km/h (0 Bft) O 83 0 min 0 min 0,0 UV-I 47 W/m 3,7 C 4,1 C 0,0 km/h (0 Bft)
02.03.2024 08:50 3,9 C 97 % 1007,3 hPa 0,0 mm 0,0 km/h (0 Bft) O 83 0 min 0 min 0,0 UV-I 46 W/m 3,5 C 3,9 C 0,0 km/h (0 Bft)
02.03.2024 08:45 3,7 C 97 % 1007,2 hPa 0,0 mm 0,0 km/h (0 Bft) O 83 0 min 0 min 0,0 UV-I 47 W/m 3,3 C 3,7 C 0,0 km/h (0 Bft)
02.03.2024 08:40 3,6 C 97 % 1007,1 hPa 0,0 mm 0,0 km/h (0 Bft) O 83 0 min 0 min 0,0 UV-I 53 W/m 3,2 C 3,6 C 0,0 km/h (0 Bft)
02.03.2024 08:35 3,4 C 97 % 1007,0 hPa 0,0 mm 0,0 km/h (0 Bft) O 83 0 min 0 min 0,0 UV-I 53 W/m 3,0 C 3,4 C 0,0 km/h (0 Bft)
02.03.2024 08:30 3,3 C 97 % 1007,0 hPa 0,0 mm 0,0 km/h (0 Bft) O 83 0 min 0 min 0,0 UV-I 49 W/m 2,9 C 3,3 C 0,0 km/h (0 Bft)
02.03.2024 08:25 3,3 C 97 % 1006,9 hPa 0,0 mm 0,0 km/h (0 Bft) O 83 0 min 0 min 0,0 UV-I 44 W/m 2,9 C 3,3 C 0,0 km/h (0 Bft)
02.03.2024 08:20 3,3 C 97 % 1006,9 hPa 0,0 mm 0,0 km/h (0 Bft) O 83 0 min 0 min 0,0 UV-I 44 W/m 2,9 C 3,3 C 0,0 km/h (0 Bft)
02.03.2024 08:15 3,2 C 97 % 1006,9 hPa 0,0 mm 0,0 km/h (0 Bft) O 83 0 min 0 min 0,0 UV-I 40 W/m 2,8 C 3,2 C 0,0 km/h (0 Bft)
02.03.2024 08:10 3,2 C 97 % 1006,9 hPa 0,0 mm 0,0 km/h (0 Bft) O 83 0 min 0 min 0,0 UV-I 35 W/m 2,8 C 3,2 C 0,0 km/h (0 Bft)
02.03.2024 08:05 2,9 C 97 % 1006,9 hPa 0,0 mm 0,0 km/h (0 Bft) O 83 0 min 0 min 0,0 UV-I 33 W/m 2,5 C 2,9 C 0,0 km/h (0 Bft)
02.03.2024 08:00 2,9 C 97 % 1006,9 hPa 0,0 mm 0,0 km/h (0 Bft) O 83 0 min 0 min 0,0 UV-I 32 W/m 2,5 C 2,9 C 0,0 km/h (0 Bft)
02.03.2024 07:55 2,9 C 97 % 1006,8 hPa 0,0 mm 0,0 km/h (0 Bft) O 83 0 min 0 min 0,0 UV-I 28 W/m 2,5 C 2,9 C 0,0 km/h (0 Bft)
02.03.2024 07:50 3,0 C 97 % 1006,8 hPa 0,0 mm 0,0 km/h (0 Bft) O 83 0 min 0 min 0,0 UV-I 25 W/m 2,6 C 3,0 C 0,0 km/h (0 Bft)
02.03.2024 07:45 3,0 C 97 % 1006,8 hPa 0,0 mm 0,0 km/h (0 Bft) O 83 0 min 0 min 0,0 UV-I 21 W/m 2,6 C 3,0 C 0,0 km/h (0 Bft)
02.03.2024 07:40 2,9 C 97 % 1006,8 hPa 0,0 mm 0,0 km/h (0 Bft) O 83 0 min 0 min 0,0 UV-I 18 W/m 2,5 C 2,9 C 0,0 km/h (0 Bft)
02.03.2024 07:35 2,9 C 96 % 1006,8 hPa 0,0 mm 0,0 km/h (0 Bft) O 83 0 min 0 min 0,0 UV-I 16 W/m 2,3 C 2,9 C 0,0 km/h (0 Bft)
02.03.2024 07:30 3,0 C 97 % 1006,8 hPa 0,0 mm 0,0 km/h (0 Bft) O 83 0 min 0 min 0,0 UV-I 14 W/m 2,6 C 3,0 C 0,0 km/h (0 Bft)
02.03.2024 07:25 2,9 C 96 % 1006,8 hPa 0,0 mm 0,0 km/h (0 Bft) O 83 0 min 0 min 0,0 UV-I 14 W/m 2,3 C 2,9 C 0,0 km/h (0 Bft)
02.03.2024 07:20 2,9 C 96 % 1006,7 hPa 0,0 mm 0,0 km/h (0 Bft) O 83 0 min 0 min 0,0 UV-I 12 W/m 2,3 C 2,9 C 0,0 km/h (0 Bft)
02.03.2024 07:15 3,0 C 96 % 1006,7 hPa 0,0 mm 0,0 km/h (0 Bft) O 83 0 min 0 min 0,0 UV-I 11 W/m 2,4 C 3,0 C 0,0 km/h (0 Bft)
02.03.2024 07:10 3,1 C 96 % 1006,8 hPa 0,0 mm 0,0 km/h (0 Bft) O 83 0 min 0 min 0,0 UV-I 9 W/m 2,5 C 3,1 C 0,0 km/h (0 Bft)
02.03.2024 07:05 3,1 C 96 % 1006,8 hPa 0,0 mm 0,0 km/h (0 Bft) O 83 0 min 0 min 0,0 UV-I 7 W/m 2,5 C 3,1 C 0,0 km/h (0 Bft)
02.03.2024 07:00 3,1 C 97 % 1006,7 hPa 0,0 mm 0,0 km/h (0 Bft) O 83 0 min 0 min 0,0 UV-I 5 W/m 2,7 C 3,1 C 0,0 km/h (0 Bft)
02.03.2024 06:55 3,2 C 97 % 1006,7 hPa 0,0 mm 0,0 km/h (0 Bft) O 83 0 min 0 min 0,0 UV-I 0 W/m 2,8 C 3,2 C 0,0 km/h (0 Bft)
02.03.2024 06:50 3,2 C 97 % 1006,6 hPa 0,0 mm 0,0 km/h (0 Bft) O 83 0 min 0 min 0,0 UV-I 0 W/m 2,8 C 3,2 C 0,0 km/h (0 Bft)
02.03.2024 06:45 3,3 C 97 % 1006,6 hPa 0,0 mm 0,0 km/h (0 Bft) O 83 0 min 0 min 0,0 UV-I 0 W/m 2,9 C 3,3 C 0,0 km/h (0 Bft)
02.03.2024 06:40 3,3 C 97 % 1006,6 hPa 0,0 mm 0,0 km/h (0 Bft) O 83 0 min 0 min 0,0 UV-I 0 W/m 2,9 C 3,3 C 0,0 km/h (0 Bft)
02.03.2024 06:35 3,3 C 97 % 1006,6 hPa 0,0 mm 0,0 km/h (0 Bft) O 83 0 min 0 min 0,0 UV-I 0 W/m 2,9 C 3,3 C 0,0 km/h (0 Bft)
02.03.2024 06:30 3,3 C 96 % 1006,6 hPa 0,0 mm 0,0 km/h (0 Bft) O 83 0 min 0 min 0,0 UV-I 0 W/m 2,7 C 3,3 C 0,0 km/h (0 Bft)
02.03.2024 06:25 3,3 C 96 % 1006,5 hPa 0,0 mm 0,1 km/h (0 Bft) O 83 0 min 0 min 0,0 UV-I 0 W/m 2,7 C 3,3 C 1,6 km/h (1 Bft)
02.03.2024 06:20 3,4 C 97 % 1006,5 hPa 0,0 mm 0,2 km/h (0 Bft) O 83 0 min 0 min 0,0 UV-I 0 W/m 3,0 C 3,4 C 1,6 km/h (1 Bft)
02.03.2024 06:15 3,6 C 97 % 1006,5 hPa 0,0 mm 0,6 km/h (0 Bft) O 83 0 min 0 min 0,0 UV-I 0 W/m 3,2 C 3,6 C 3,2 km/h (1 Bft)
02.03.2024 06:10 3,6 C 97 % 1006,5 hPa 0,0 mm 0,1 km/h (0 Bft) O 83 0 min 0 min 0,0 UV-I 0 W/m 3,2 C 3,6 C 1,6 km/h (1 Bft)
02.03.2024 06:05 3,6 C 97 % 1006,4 hPa 0,0 mm 0,0 km/h (0 Bft) O 83 0 min 0 min 0,0 UV-I 0 W/m 3,2 C 3,6 C 0,0 km/h (0 Bft)
02.03.2024 06:00 3,6 C 97 % 1006,4 hPa 0,0 mm 0,0 km/h (0 Bft) O 83 0 min 0 min 0,0 UV-I 0 W/m 3,2 C 3,6 C 0,0 km/h (0 Bft)
02.03.2024 05:55 3,6 C 97 % 1006,4 hPa 0,0 mm 0,1 km/h (0 Bft) O 83 0 min 0 min 0,0 UV-I 0 W/m 3,2 C 3,6 C 1,6 km/h (1 Bft)
02.03.2024 05:50 3,6 C 97 % 1006,4 hPa 0,0 mm 0,0 km/h (0 Bft) O 83 0 min 0 min 0,0 UV-I 0 W/m 3,2 C 3,6 C 0,0 km/h (0 Bft)
02.03.2024 05:45 3,6 C 97 % 1006,3 hPa 0,0 mm 0,0 km/h (0 Bft) O 83 0 min 0 min 0,0 UV-I 0 W/m 3,2 C 3,6 C 0,0 km/h (0 Bft)
02.03.2024 05:40 3,6 C 97 % 1006,3 hPa 0,0 mm 0,0 km/h (0 Bft) O 83 0 min 0 min 0,0 UV-I 0 W/m 3,2 C 3,6 C 0,0 km/h (0 Bft)
02.03.2024 05:35 3,6 C 97 % 1006,3 hPa 0,0 mm 0,0 km/h (0 Bft) O 83 0 min 0 min 0,0 UV-I 0 W/m 3,2 C 3,6 C 0,0 km/h (0 Bft)
02.03.2024 05:30 3,5 C 97 % 1006,3 hPa 0,0 mm 1,1 km/h (1 Bft) O 83 0 min 0 min 0,0 UV-I 0 W/m 3,1 C 3,5 C 4,8 km/h (1 Bft)
02.03.2024 05:25 3,3 C 97 % 1006,2 hPa 0,0 mm 0,9 km/h (0 Bft) O-NO 65 0 min 0 min 0,0 UV-I 0 W/m 2,9 C 3,3 C 3,2 km/h (1 Bft)
02.03.2024 05:20 3,3 C 97 % 1006,2 hPa 0,0 mm 0,0 km/h (0 Bft) O-NO 63 0 min 0 min 0,0 UV-I 0 W/m 2,9 C 3,3 C 0,0 km/h (0 Bft)
02.03.2024 05:15 3,2 C 97 % 1006,3 hPa 0,0 mm 0,0 km/h (0 Bft) O-NO 63 0 min 0 min 0,0 UV-I 0 W/m 2,8 C 3,2 C 0,0 km/h (0 Bft)
02.03.2024 05:10 3,3 C 97 % 1006,3 hPa 0,0 mm 0,0 km/h (0 Bft) O-NO 63 0 min 0 min 0,0 UV-I 0 W/m 2,9 C 3,3 C 0,0 km/h (0 Bft)
02.03.2024 05:05 3,3 C 97 % 1006,3 hPa 0,0 mm 0,0 km/h (0 Bft) O-NO 63 0 min 0 min 0,0 UV-I 0 W/m 2,9 C 3,3 C 0,0 km/h (0 Bft)
02.03.2024 05:00 3,3 C 97 % 1006,3 hPa 0,0 mm 0,0 km/h (0 Bft) O-NO 63 0 min 0 min 0,0 UV-I 0 W/m 2,9 C 3,3 C 0,0 km/h (0 Bft)
02.03.2024 04:55 3,2 C 97 % 1006,3 hPa 0,0 mm 0,0 km/h (0 Bft) O-NO 63 0 min 0 min 0,0 UV-I 0 W/m 2,8 C 3,2 C 0,0 km/h (0 Bft)
02.03.2024 04:50 3,2 C 97 % 1006,3 hPa 0,0 mm 0,1 km/h (0 Bft) O-NO 63 0 min 0 min 0,0 UV-I 0 W/m 2,8 C 3,2 C 1,6 km/h (1 Bft)
02.03.2024 04:45 3,1 C 97 % 1006,3 hPa 0,0 mm 0,0 km/h (0 Bft) O-NO 63 0 min 0 min 0,0 UV-I 0 W/m 2,7 C 3,1 C 0,0 km/h (0 Bft)
02.03.2024 04:40 3,1 C 97 % 1006,4 hPa 0,0 mm 0,0 km/h (0 Bft) O-NO 63 0 min 0 min 0,0 UV-I 0 W/m 2,7 C 3,1 C 0,0 km/h (0 Bft)
02.03.2024 04:35 3,2 C 97 % 1006,4 hPa 0,0 mm 0,0 km/h (0 Bft) O-NO 63 0 min 0 min 0,0 UV-I 0 W/m 2,8 C 3,2 C 0,0 km/h (0 Bft)
02.03.2024 04:30 3,1 C 97 % 1006,4 hPa 0,0 mm 0,0 km/h (0 Bft) O-NO 63 0 min 0 min 0,0 UV-I 0 W/m 2,7 C 3,1 C 0,0 km/h (0 Bft)
02.03.2024 04:25 3,1 C 97 % 1006,5 hPa 0,0 mm 0,1 km/h (0 Bft) O-NO 63 0 min 0 min 0,0 UV-I 0 W/m 2,7 C 3,1 C 1,6 km/h (1 Bft)
02.03.2024 04:20 3,0 C 97 % 1006,5 hPa 0,0 mm 0,0 km/h (0 Bft) O-NO 63 0 min 0 min 0,0 UV-I 0 W/m 2,6 C 3,0 C 0,0 km/h (0 Bft)
02.03.2024 04:15 3,0 C 97 % 1006,4 hPa 0,0 mm 0,0 km/h (0 Bft) O-NO 63 0 min 0 min 0,0 UV-I 0 W/m 2,6 C 3,0 C 0,0 km/h (0 Bft)
02.03.2024 04:10 2,9 C 97 % 1006,4 hPa 0,0 mm 0,0 km/h (0 Bft) O-NO 63 0 min 0 min 0,0 UV-I 0 W/m 2,5 C 2,9 C 0,0 km/h (0 Bft)
02.03.2024 04:05 2,9 C 97 % 1006,4 hPa 0,0 mm 0,0 km/h (0 Bft) O-NO 63 0 min 0 min 0,0 UV-I 0 W/m 2,5 C 2,9 C 1,6 km/h (1 Bft)
02.03.2024 04:00 2,8 C 97 % 1006,4 hPa 0,0 mm 0,0 km/h (0 Bft) O-NO 63 0 min 0 min 0,0 UV-I 0 W/m 2,4 C 2,8 C 0,0 km/h (0 Bft)
02.03.2024 03:55 2,8 C 97 % 1006,5 hPa 0,0 mm 0,0 km/h (0 Bft) O-NO 63 0 min 0 min 0,0 UV-I 0 W/m 2,4 C 2,8 C 0,0 km/h (0 Bft)
02.03.2024 03:50 2,8 C 97 % 1006,5 hPa 0,0 mm 0,0 km/h (0 Bft) O-NO 63 0 min 0 min 0,0 UV-I 0 W/m 2,4 C 2,8 C 0,0 km/h (0 Bft)
02.03.2024 03:45 2,7 C 97 % 1006,4 hPa 0,0 mm 0,0 km/h (0 Bft) O-NO 63 0 min 0 min 0,0 UV-I 0 W/m 2,3 C 2,7 C 0,0 km/h (0 Bft)
02.03.2024 03:40 2,7 C 97 % 1006,5 hPa 0,0 mm 0,0 km/h (0 Bft) O-NO 63 0 min 0 min 0,0 UV-I 0 W/m 2,3 C 2,7 C 0,0 km/h (0 Bft)
02.03.2024 03:35 2,6 C 97 % 1006,5 hPa 0,0 mm 0,0 km/h (0 Bft) O-NO 63 0 min 0 min 0,0 UV-I 0 W/m 2,2 C 2,6 C 0,0 km/h (0 Bft)
02.03.2024 03:30 2,5 C 97 % 1006,5 hPa 0,0 mm 0,0 km/h (0 Bft) O-NO 63 0 min 0 min 0,0 UV-I 0 W/m 2,1 C 2,5 C 0,0 km/h (0 Bft)
02.03.2024 03:25 2,4 C 96 % 1006,5 hPa 0,0 mm 0,1 km/h (0 Bft) O-NO 63 0 min 0 min 0,0 UV-I 0 W/m 1,8 C 2,4 C 1,6 km/h (1 Bft)
02.03.2024 03:20 2,4 C 97 % 1006,5 hPa 0,0 mm 0,0 km/h (0 Bft) O-NO 63 0 min 0 min 0,0 UV-I 0 W/m 2,0 C 2,4 C 0,0 km/h (0 Bft)
02.03.2024 03:15 2,4 C 97 % 1006,5 hPa 0,0 mm 0,0 km/h (0 Bft) O-NO 63 0 min 0 min 0,0 UV-I 0 W/m 2,0 C 2,4 C 0,0 km/h (0 Bft)
02.03.2024 03:10 2,4 C 96 % 1006,5 hPa 0,0 mm 0,0 km/h (0 Bft) O-NO 63 0 min 0 min 0,0 UV-I 0 W/m 1,8 C 2,4 C 0,0 km/h (0 Bft)
02.03.2024 03:05 2,3 C 96 % 1006,5 hPa 0,0 mm 0,0 km/h (0 Bft) O-NO 63 0 min 0 min 0,0 UV-I 0 W/m 1,7 C 2,3 C 0,0 km/h (0 Bft)
02.03.2024 03:00 2,3 C 96 % 1006,6 hPa 0,0 mm 0,0 km/h (0 Bft) O-NO 63 0 min 0 min 0,0 UV-I 0 W/m 1,7 C 2,3 C 0,0 km/h (0 Bft)
02.03.2024 02:55 2,3 C 97 % 1006,6 hPa 0,0 mm 0,0 km/h (0 Bft) O-NO 63 0 min 0 min 0,0 UV-I 0 W/m 1,9 C 2,3 C 0,0 km/h (0 Bft)
02.03.2024 02:50 2,3 C 97 % 1006,6 hPa 0,0 mm 0,0 km/h (0 Bft) O-NO 63 0 min 0 min 0,0 UV-I 0 W/m 1,9 C 2,3 C 0,0 km/h (0 Bft)
02.03.2024 02:45 2,3 C 97 % 1006,6 hPa 0,0 mm 0,0 km/h (0 Bft) O-NO 63 0 min 0 min 0,0 UV-I 0 W/m 1,9 C 2,3 C 0,0 km/h (0 Bft)
02.03.2024 02:40 2,2 C 97 % 1006,6 hPa 0,0 mm 0,0 km/h (0 Bft) O-NO 63 0 min 0 min 0,0 UV-I 0 W/m 1,8 C 2,2 C 0,0 km/h (0 Bft)
02.03.2024 02:35 2,3 C 97 % 1006,6 hPa 0,0 mm 0,0 km/h (0 Bft) O-NO 63 0 min 0 min 0,0 UV-I 0 W/m 1,9 C 2,3 C 0,0 km/h (0 Bft)
02.03.2024 02:30 2,3 C 97 % 1006,6 hPa 0,0 mm 0,0 km/h (0 Bft) O-NO 63 0 min 0 min 0,0 UV-I 0 W/m 1,9 C 2,3 C 0,0 km/h (0 Bft)
02.03.2024 02:25 2,3 C 97 % 1006,6 hPa 0,0 mm 0,0 km/h (0 Bft) O-NO 63 0 min 0 min 0,0 UV-I 0 W/m 1,9 C 2,3 C 0,0 km/h (0 Bft)
02.03.2024 02:20 2,3 C 97 % 1006,5 hPa 0,0 mm 0,0 km/h (0 Bft) O-NO 63 0 min 0 min 0,0 UV-I 0 W/m 1,9 C 2,3 C 0,0 km/h (0 Bft)
02.03.2024 02:15 2,3 C 97 % 1006,5 hPa 0,0 mm 0,0 km/h (0 Bft) O-NO 63 0 min 0 min 0,0 UV-I 0 W/m 1,9 C 2,3 C 0,0 km/h (0 Bft)
02.03.2024 02:10 2,3 C 97 % 1006,5 hPa 0,0 mm 0,2 km/h (0 Bft) O-NO 63 0 min 0 min 0,0 UV-I 0 W/m 1,9 C 2,3 C 1,6 km/h (1 Bft)
02.03.2024 02:05 2,2 C 97 % 1006,3 hPa 0,0 mm 0,3 km/h (0 Bft) O-NO 63 0 min 0 min 0,0 UV-I 0 W/m 1,8 C 2,2 C 3,2 km/h (1 Bft)
02.03.2024 02:00 2,1 C 97 % 1006,3 hPa 0,0 mm 0,0 km/h (0 Bft) O-NO 63 0 min 0 min 0,0 UV-I 0 W/m 1,7 C 2,1 C 1,6 km/h (1 Bft)
02.03.2024 01:55 2,1 C 97 % 1006,3 hPa 0,0 mm 0,1 km/h (0 Bft) O-NO 63 0 min 0 min 0,0 UV-I 0 W/m 1,7 C 2,1 C 1,6 km/h (1 Bft)
02.03.2024 01:50 1,9 C 97 % 1006,3 hPa 0,0 mm 0,7 km/h (0 Bft) O-NO 63 0 min 0 min 0,0 UV-I 0 W/m 1,5 C 1,9 C 4,8 km/h (1 Bft)
02.03.2024 01:45 1,7 C 97 % 1006,3 hPa 0,0 mm 0,6 km/h (0 Bft) O-NO 62 0 min 0 min 0,0 UV-I 0 W/m 1,3 C 1,7 C 3,2 km/h (1 Bft)
02.03.2024 01:40 1,4 C 96 % 1006,4 hPa 0,0 mm 0,0 km/h (0 Bft) O-NO 62 0 min 0 min 0,0 UV-I 0 W/m 0,8 C 1,4 C 0,0 km/h (0 Bft)
02.03.2024 01:35 1,3 C 96 % 1006,4 hPa 0,0 mm 0,0 km/h (0 Bft) O-NO 62 0 min 0 min 0,0 UV-I 0 W/m 0,7 C 1,3 C 0,0 km/h (0 Bft)
02.03.2024 01:30 1,2 C 96 % 1006,4 hPa 0,0 mm 0,0 km/h (0 Bft) O-NO 62 0 min 0 min 0,0 UV-I 0 W/m 0,6 C 1,2 C 0,0 km/h (0 Bft)
02.03.2024 01:25 1,2 C 96 % 1006,4 hPa 0,0 mm 0,0 km/h (0 Bft) O-NO 62 0 min 0 min 0,0 UV-I 0 W/m 0,6 C 1,2 C 0,0 km/h (0 Bft)
02.03.2024 01:20 1,1 C 96 % 1006,4 hPa 0,0 mm 0,0 km/h (0 Bft) O-NO 62 0 min 0 min 0,0 UV-I 0 W/m 0,5 C 1,1 C 0,0 km/h (0 Bft)
02.03.2024 01:15 1,1 C 96 % 1006,4 hPa 0,0 mm 0,0 km/h (0 Bft) O-NO 62 0 min 0 min 0,0 UV-I 0 W/m 0,5 C 1,1 C 0,0 km/h (0 Bft)
02.03.2024 01:10 1,0 C 96 % 1006,5 hPa 0,0 mm 0,0 km/h (0 Bft) O-NO 62 0 min 0 min 0,0 UV-I 0 W/m 0,4 C 1,0 C 0,0 km/h (0 Bft)
02.03.2024 01:05 0,9 C 96 % 1006,5 hPa 0,0 mm 0,0 km/h (0 Bft) O-NO 62 0 min 0 min 0,0 UV-I 0 W/m 0,3 C 0,9 C 0,0 km/h (0 Bft)
02.03.2024 01:00 0,9 C 96 % 1006,6 hPa 0,0 mm 0,0 km/h (0 Bft) O-NO 62 0 min 0 min 0,0 UV-I 0 W/m 0,3 C 0,9 C 0,0 km/h (0 Bft)
02.03.2024 00:55 0,9 C 96 % 1006,7 hPa 0,0 mm 0,0 km/h (0 Bft) O-NO 62 0 min 0 min 0,0 UV-I 0 W/m 0,3 C 0,9 C 0,0 km/h (0 Bft)
02.03.2024 00:50 0,9 C 96 % 1006,7 hPa 0,0 mm 0,0 km/h (0 Bft) O-NO 62 0 min 0 min 0,0 UV-I 0 W/m 0,3 C 0,9 C 0,0 km/h (0 Bft)
02.03.2024 00:45 0,9 C 96 % 1006,8 hPa 0,0 mm 0,0 km/h (0 Bft) O-NO 62 0 min 0 min 0,0 UV-I 0 W/m 0,3 C 0,9 C 0,0 km/h (0 Bft)
02.03.2024 00:40 1,1 C 96 % 1006,8 hPa 0,0 mm 0,0 km/h (0 Bft) O-NO 62 0 min 0 min 0,0 UV-I 0 W/m 0,5 C 1,1 C 0,0 km/h (0 Bft)
02.03.2024 00:35 1,1 C 96 % 1006,8 hPa 0,0 mm 0,0 km/h (0 Bft) O-NO 62 0 min 0 min 0,0 UV-I 0 W/m 0,5 C 1,1 C 0,0 km/h (0 Bft)
02.03.2024 00:30 1,1 C 96 % 1006,9 hPa 0,0 mm 0,0 km/h (0 Bft) O-NO 62 0 min 0 min 0,0 UV-I 0 W/m 0,5 C 1,1 C 0,0 km/h (0 Bft)
02.03.2024 00:25 1,1 C 96 % 1006,9 hPa 0,0 mm 0,0 km/h (0 Bft) O-NO 62 0 min 0 min 0,0 UV-I 0 W/m 0,5 C 1,1 C 0,0 km/h (0 Bft)
02.03.2024 00:20 1,1 C 96 % 1006,9 hPa 0,0 mm 0,0 km/h (0 Bft) O-NO 62 0 min 0 min 0,0 UV-I 0 W/m 0,5 C 1,1 C 0,0 km/h (0 Bft)
02.03.2024 00:15 1,1 C 96 % 1006,9 hPa 0,0 mm 0,0 km/h (0 Bft) O-NO 62 0 min 0 min 0,0 UV-I 0 W/m 0,5 C 1,1 C 0,0 km/h (0 Bft)
02.03.2024 00:10 1,1 C 96 % 1006,9 hPa 0,0 mm 0,0 km/h (0 Bft) O-NO 62 0 min 0 min 0,0 UV-I 0 W/m 0,5 C 1,1 C 0,0 km/h (0 Bft)
02.03.2024 00:05 1,1 C 96 % 1007,0 hPa 0,0 mm 0,0 km/h (0 Bft) O-NO 62 0 min 0 min 0,0 UV-I 0 W/m 0,5 C 1,1 C 0,0 km/h (0 Bft)
02.03.2024 00:00 1,1 C 96 % 1007,0 hPa 0,0 mm 0,0 km/h (0 Bft) O-NO 62 0 min 0 min 0,0 UV-I 0 W/m 0,5 C 1,1 C 0,0 km/h (0 Bft)
01.03.2024 23:55 1,1 C 96 % 1007,0 hPa 0,0 mm 0,0 km/h (0 Bft) O-NO 62 0 min 0 min 0,0 UV-I 0 W/m 0,5 C 1,1 C 0,0 km/h (0 Bft)
01.03.2024 23:50 1,1 C 96 % 1007,0 hPa 0,0 mm 0,0 km/h (0 Bft) O-NO 62 0 min 0 min 0,0 UV-I 0 W/m 0,5 C 1,1 C 0,0 km/h (0 Bft)
01.03.2024 23:45 1,2 C 96 % 1007,0 hPa 0,0 mm 0,0 km/h (0 Bft) O-NO 62 0 min 0 min 0,0 UV-I 0 W/m 0,6 C 1,2 C 0,0 km/h (0 Bft)
01.03.2024 23:40 1,2 C 96 % 1007,1 hPa 0,0 mm 0,0 km/h (0 Bft) O-NO 62 0 min 0 min 0,0 UV-I 0 W/m 0,6 C 1,2 C 0,0 km/h (0 Bft)
01.03.2024 23:35 1,2 C 96 % 1007,1 hPa 0,0 mm 0,0 km/h (0 Bft) O-NO 62 0 min 0 min 0,0 UV-I 0 W/m 0,6 C 1,2 C 0,0 km/h (0 Bft)
01.03.2024 23:30 1,2 C 96 % 1007,1 hPa 0,0 mm 0,0 km/h (0 Bft) O-NO 62 0 min 0 min 0,0 UV-I 0 W/m 0,6 C 1,2 C 0,0 km/h (0 Bft)
01.03.2024 23:25 1,1 C 96 % 1007,1 hPa 0,0 mm 0,0 km/h (0 Bft) O-NO 62 0 min 0 min 0,0 UV-I 0 W/m 0,5 C 1,1 C 0,0 km/h (0 Bft)
01.03.2024 23:20 1,1 C 96 % 1007,2 hPa 0,0 mm 0,0 km/h (0 Bft) O-NO 62 0 min 0 min 0,0 UV-I 0 W/m 0,5 C 1,1 C 0,0 km/h (0 Bft)
01.03.2024 23:15 1,1 C 96 % 1007,1 hPa 0,0 mm 0,0 km/h (0 Bft) O-NO 62 0 min 0 min 0,0 UV-I 0 W/m 0,5 C 1,1 C 0,0 km/h (0 Bft)
01.03.2024 23:10 1,1 C 95 % 1007,2 hPa 0,0 mm 0,0 km/h (0 Bft) O-NO 62 0 min 0 min 0,0 UV-I 0 W/m 0,4 C 1,1 C 0,0 km/h (0 Bft)
01.03.2024 23:05 1,1 C 95 % 1007,1 hPa 0,0 mm 0,0 km/h (0 Bft) O-NO 62 0 min 0 min 0,0 UV-I 0 W/m 0,4 C 1,1 C 0,0 km/h (0 Bft)
01.03.2024 23:00 1,1 C 96 % 1007,2 hPa 0,0 mm 0,0 km/h (0 Bft) O-NO 62 0 min 0 min 0,0 UV-I 0 W/m 0,5 C 1,1 C 0,0 km/h (0 Bft)
01.03.2024 22:55 1,1 C 95 % 1007,1 hPa 0,0 mm 0,0 km/h (0 Bft) O-NO 62 0 min 0 min 0,0 UV-I 0 W/m 0,4 C 1,1 C 0,0 km/h (0 Bft)
01.03.2024 22:50 1,1 C 95 % 1007,2 hPa 0,0 mm 0,0 km/h (0 Bft) O-NO 62 0 min 0 min 0,0 UV-I 0 W/m 0,4 C 1,1 C 0,0 km/h (0 Bft)
01.03.2024 22:45 1,2 C 95 % 1007,2 hPa 0,0 mm 0,0 km/h (0 Bft) O-NO 62 0 min 0 min 0,0 UV-I 0 W/m 0,5 C 1,2 C 0,0 km/h (0 Bft)
01.03.2024 22:40 1,3 C 95 % 1007,2 hPa 0,0 mm 0,0 km/h (0 Bft) O-NO 62 0 min 0 min 0,0 UV-I 0 W/m 0,6 C 1,3 C 0,0 km/h (0 Bft)
01.03.2024 22:35 1,4 C 95 % 1007,2 hPa 0,0 mm 0,0 km/h (0 Bft) O-NO 62 0 min 0 min 0,0 UV-I 0 W/m 0,7 C 1,4 C 0,0 km/h (0 Bft)
01.03.2024 22:30 1,4 C 95 % 1007,2 hPa 0,0 mm 0,0 km/h (0 Bft) O-NO 62 0 min 0 min 0,0 UV-I 0 W/m 0,7 C 1,4 C 0,0 km/h (0 Bft)
01.03.2024 22:25 1,4 C 95 % 1007,2 hPa 0,0 mm 0,0 km/h (0 Bft) O-NO 62 0 min 0 min 0,0 UV-I 0 W/m 0,7 C 1,4 C 0,0 km/h (0 Bft)
01.03.2024 22:20 1,6 C 95 % 1007,2 hPa 0,0 mm 0,0 km/h (0 Bft) O-NO 62 0 min 0 min 0,0 UV-I 0 W/m 0,9 C 1,6 C 0,0 km/h (0 Bft)
01.03.2024 22:15 1,7 C 95 % 1007,2 hPa 0,0 mm 0,0 km/h (0 Bft) O-NO 62 0 min 0 min 0,0 UV-I 0 W/m 1,0 C 1,7 C 0,0 km/h (0 Bft)
01.03.2024 22:10 1,8 C 95 % 1007,3 hPa 0,0 mm 0,0 km/h (0 Bft) O-NO 62 0 min 0 min 0,0 UV-I 0 W/m 1,1 C 1,8 C 0,0 km/h (0 Bft)
01.03.2024 22:05 1,9 C 95 % 1007,3 hPa 0,0 mm 0,0 km/h (0 Bft) O-NO 62 0 min 0 min 0,0 UV-I 0 W/m 1,2 C 1,9 C 0,0 km/h (0 Bft)
01.03.2024 22:00 1,9 C 95 % 1007,4 hPa 0,0 mm 0,0 km/h (0 Bft) O-NO 62 0 min 0 min 0,0 UV-I 0 W/m 1,2 C 1,9 C 0,0 km/h (0 Bft)
01.03.2024 21:55 1,9 C 95 % 1007,5 hPa 0,0 mm 0,0 km/h (0 Bft) O-NO 62 0 min 0 min 0,0 UV-I 0 W/m 1,2 C 1,9 C 0,0 km/h (0 Bft)
01.03.2024 21:50 1,9 C 95 % 1007,5 hPa 0,0 mm 0,0 km/h (0 Bft) O-NO 62 0 min 0 min 0,0 UV-I 0 W/m 1,2 C 1,9 C 0,0 km/h (0 Bft)
01.03.2024 21:45 2,1 C 95 % 1007,3 hPa 0,0 mm 0,0 km/h (0 Bft) O-NO 62 0 min 0 min 0,0 UV-I 0 W/m 1,4 C 2,1 C 0,0 km/h (0 Bft)
01.03.2024 21:40 2,1 C 95 % 1007,4 hPa 0,0 mm 0,0 km/h (0 Bft) O-NO 62 0 min 0 min 0,0 UV-I 0 W/m 1,4 C 2,1 C 0,0 km/h (0 Bft)
01.03.2024 21:35 2,2 C 95 % 1007,3 hPa 0,0 mm 0,0 km/h (0 Bft) O-NO 62 0 min 0 min 0,0 UV-I 0 W/m 1,5 C 2,2 C 0,0 km/h (0 Bft)
01.03.2024 21:30 2,3 C 95 % 1007,4 hPa 0,0 mm 0,0 km/h (0 Bft) O-NO 62 0 min 0 min 0,0 UV-I 0 W/m 1,6 C 2,3 C 0,0 km/h (0 Bft)
01.03.2024 21:25 2,3 C 95 % 1007,5 hPa 0,0 mm 0,0 km/h (0 Bft) O-NO 62 0 min 0 min 0,0 UV-I 0 W/m 1,6 C 2,3 C 0,0 km/h (0 Bft)
01.03.2024 21:20 2,4 C 95 % 1007,5 hPa 0,0 mm 0,0 km/h (0 Bft) O-NO 62 0 min 0 min 0,0 UV-I 0 W/m 1,7 C 2,4 C 0,0 km/h (0 Bft)
01.03.2024 21:15 2,4 C 95 % 1007,5 hPa 0,0 mm 0,0 km/h (0 Bft) O-NO 62 0 min 0 min 0,0 UV-I 0 W/m 1,7 C 2,4 C 0,0 km/h (0 Bft)
01.03.2024 21:10 2,4 C 94 % 1007,5 hPa 0,0 mm 0,0 km/h (0 Bft) O-NO 62 0 min 0 min 0,0 UV-I 0 W/m 1,5 C 2,4 C 0,0 km/h (0 Bft)
01.03.2024 21:05 2,6 C 95 % 1007,5 hPa 0,0 mm 0,0 km/h (0 Bft) O-NO 62 0 min 0 min 0,0 UV-I 0 W/m 1,9 C 2,6 C 0,0 km/h (0 Bft)
01.03.2024 21:00 2,7 C 95 % 1007,5 hPa 0,0 mm 0,0 km/h (0 Bft) O-NO 62 0 min 0 min 0,0 UV-I 0 W/m 2,0 C 2,7 C 0,0 km/h (0 Bft)
01.03.2024 20:55 2,8 C 94 % 1007,5 hPa 0,0 mm 0,0 km/h (0 Bft) O-NO 62 0 min 0 min 0,0 UV-I 0 W/m 1,9 C 2,8 C 0,0 km/h (0 Bft)
01.03.2024 20:50 2,8 C 94 % 1007,6 hPa 0,0 mm 0,0 km/h (0 Bft) O-NO 62 0 min 0 min 0,0 UV-I 0 W/m 1,9 C 2,8 C 0,0 km/h (0 Bft)
01.03.2024 20:45 3,1 C 94 % 1007,6 hPa 0,0 mm 0,0 km/h (0 Bft) O-NO 62 0 min 0 min 0,0 UV-I 0 W/m 2,2 C 3,1 C 0,0 km/h (0 Bft)
01.03.2024 20:40 3,1 C 95 % 1007,6 hPa 0,0 mm 0,0 km/h (0 Bft) O-NO 62 0 min 0 min 0,0 UV-I 0 W/m 2,4 C 3,1 C 0,0 km/h (0 Bft)
01.03.2024 20:35 3,2 C 94 % 1007,6 hPa 0,0 mm 0,0 km/h (0 Bft) O-NO 62 0 min 0 min 0,0 UV-I 0 W/m 2,3 C 3,2 C 0,0 km/h (0 Bft)
01.03.2024 20:30 3,3 C 94 % 1007,6 hPa 0,0 mm 0,0 km/h (0 Bft) O-NO 62 0 min 0 min 0,0 UV-I 0 W/m 2,4 C 3,3 C 0,0 km/h (0 Bft)
01.03.2024 20:25 3,4 C 94 % 1007,7 hPa 0,0 mm 0,0 km/h (0 Bft) O-NO 62 0 min 0 min 0,0 UV-I 0 W/m 2,5 C 3,4 C 0,0 km/h (0 Bft)
01.03.2024 20:20 3,5 C 94 % 1007,7 hPa 0,0 mm 0,0 km/h (0 Bft) O-NO 62 0 min 0 min 0,0 UV-I 0 W/m 2,6 C 3,5 C 0,0 km/h (0 Bft)
01.03.2024 20:15 3,6 C 94 % 1007,7 hPa 0,0 mm 0,0 km/h (0 Bft) O-NO 62 0 min 0 min 0,0 UV-I 0 W/m 2,7 C 3,6 C 0,0 km/h (0 Bft)
01.03.2024 20:10 3,7 C 94 % 1007,7 hPa 0,0 mm 0,0 km/h (0 Bft) O-NO 62 0 min 0 min 0,0 UV-I 0 W/m 2,8 C 3,7 C 0,0 km/h (0 Bft)
01.03.2024 20:05 3,8 C 94 % 1007,6 hPa 0,0 mm 0,0 km/h (0 Bft) O-NO 62 0 min 0 min 0,0 UV-I 0 W/m 2,9 C 3,8 C 0,0 km/h (0 Bft)
01.03.2024 20:00 3,9 C 94 % 1007,6 hPa 0,0 mm 0,0 km/h (0 Bft) O-NO 62 0 min 0 min 0,0 UV-I 0 W/m 3,0 C 3,9 C 0,0 km/h (0 Bft)
01.03.2024 19:55 4,1 C 93 % 1007,6 hPa 0,0 mm 0,0 km/h (0 Bft) O-NO 62 0 min 0 min 0,0 UV-I 0 W/m 3,1 C 4,1 C 0,0 km/h (0 Bft)
01.03.2024 19:50 4,2 C 94 % 1007,6 hPa 0,0 mm 0,0 km/h (0 Bft) O-NO 62 0 min 0 min 0,0 UV-I 0 W/m 3,3 C 4,2 C 0,0 km/h (0 Bft)
01.03.2024 19:45 4,3 C 94 % 1007,7 hPa 0,0 mm 0,0 km/h (0 Bft) O-NO 62 0 min 0 min 0,0 UV-I 0 W/m 3,4 C 4,3 C 0,0 km/h (0 Bft)
01.03.2024 19:40 4,4 C 93 % 1007,7 hPa 0,0 mm 0,0 km/h (0 Bft) O-NO 62 0 min 0 min 0,0 UV-I 0 W/m 3,4 C 4,4 C 0,0 km/h (0 Bft)
01.03.2024 19:35 4,5 C 93 % 1007,7 hPa 0,0 mm 0,0 km/h (0 Bft) O-NO 62 0 min 0 min 0,0 UV-I 0 W/m 3,5 C 4,5 C 0,0 km/h (0 Bft)
01.03.2024 19:30 4,7 C 93 % 1007,7 hPa 0,0 mm 0,0 km/h (0 Bft) O-NO 62 0 min 0 min 0,0 UV-I 0 W/m 3,7 C 4,7 C 0,0 km/h (0 Bft)
01.03.2024 19:25 4,8 C 93 % 1007,7 hPa 0,0 mm 0,0 km/h (0 Bft) O-NO 62 0 min 0 min 0,0 UV-I 0 W/m 3,8 C 4,8 C 0,0 km/h (0 Bft)
01.03.2024 19:20 4,8 C 93 % 1007,7 hPa 0,0 mm 0,0 km/h (0 Bft) O-NO 62 0 min 0 min 0,0 UV-I 0 W/m 3,8 C 4,8 C 0,0 km/h (0 Bft)
01.03.2024 19:15 4,9 C 92 % 1007,7 hPa 0,0 mm 0,0 km/h (0 Bft) O-NO 62 0 min 0 min 0,0 UV-I 0 W/m 3,7 C 4,9 C 0,0 km/h (0 Bft)
01.03.2024 19:10 5,0 C 93 % 1007,7 hPa 0,0 mm 0,0 km/h (0 Bft) O-NO 62 0 min 0 min 0,0 UV-I 0 W/m 4,0 C 5,0 C 0,0 km/h (0 Bft)
01.03.2024 19:05 5,1 C 93 % 1007,7 hPa 0,0 mm 0,0 km/h (0 Bft) O-NO 62 0 min 0 min 0,0 UV-I 0 W/m 4,1 C 5,1 C 0,0 km/h (0 Bft)
01.03.2024 19:00 5,2 C 92 % 1007,7 hPa 0,0 mm 0,0 km/h (0 Bft) O-NO 62 0 min 0 min 0,0 UV-I 0 W/m 4,0 C 5,2 C 0,0 km/h (0 Bft)
01.03.2024 18:55 5,2 C 93 % 1007,7 hPa 0,0 mm 0,0 km/h (0 Bft) O-NO 62 0 min 0 min 0,0 UV-I 0 W/m 4,2 C 5,2 C 0,0 km/h (0 Bft)
01.03.2024 18:50 5,3 C 93 % 1007,7 hPa 0,0 mm 0,0 km/h (0 Bft) O-NO 62 0 min 0 min 0,0 UV-I 0 W/m 4,3 C 5,3 C 0,0 km/h (0 Bft)
01.03.2024 18:45 5,3 C 92 % 1007,6 hPa 0,0 mm 0,0 km/h (0 Bft) O-NO 62 0 min 0 min 0,0 UV-I 0 W/m 4,1 C 5,3 C 0,0 km/h (0 Bft)
01.03.2024 18:40 5,3 C 92 % 1007,6 hPa 0,0 mm 0,0 km/h (0 Bft) O-NO 62 0 min 0 min 0,0 UV-I 0 W/m 4,1 C 5,3 C 0,0 km/h (0 Bft)
01.03.2024 18:35 5,4 C 92 % 1007,6 hPa 0,0 mm 0,0 km/h (0 Bft) O-NO 62 0 min 0 min 0,0 UV-I 0 W/m 4,2 C 5,4 C 0,0 km/h (0 Bft)
01.03.2024 18:30 5,4 C 92 % 1007,6 hPa 0,0 mm 0,0 km/h (0 Bft) O-NO 62 0 min 0 min 0,0 UV-I 0 W/m 4,2 C 5,4 C 0,0 km/h (0 Bft)
01.03.2024 18:25 5,5 C 92 % 1007,6 hPa 0,0 mm 0,0 km/h (0 Bft) O-NO 62 0 min 0 min 0,0 UV-I 0 W/m 4,3 C 5,5 C 0,0 km/h (0 Bft)
01.03.2024 18:20 5,6 C 91 % 1007,6 hPa 0,0 mm 0,0 km/h (0 Bft) O-NO 62 0 min 0 min 0,0 UV-I 0 W/m 4,2 C 5,6 C 0,0 km/h (0 Bft)
01.03.2024 18:15 5,6 C 91 % 1007,6 hPa 0,0 mm 0,0 km/h (0 Bft) O-NO 62 0 min 0 min 0,0 UV-I 0 W/m 4,2 C 5,6 C 0,0 km/h (0 Bft)
01.03.2024 18:10 5,7 C 91 % 1007,7 hPa 0,0 mm 0,0 km/h (0 Bft) O-NO 62 0 min 0 min 0,0 UV-I 0 W/m 4,3 C 5,7 C 0,0 km/h (0 Bft)
01.03.2024 18:05 5,8 C 91 % 1007,7 hPa 0,0 mm 0,0 km/h (0 Bft) O-NO 62 0 min 0 min 0,0 UV-I 0 W/m 4,4 C 5,8 C 0,0 km/h (0 Bft)
01.03.2024 18:00 5,9 C 90 % 1007,7 hPa 0,0 mm 0,0 km/h (0 Bft) O-NO 62 0 min 0 min 0,0 UV-I 0 W/m 4,4 C 5,9 C 0,0 km/h (0 Bft)
_ Min-Zeit 01:05 15:35 17:05 - 09:50 - - - - - - 01:05 01:05 09:50
Minimum _ 0,9 C 72 % 1005,0 hPa - 0,0 km/h (0 Bft) - - - - - - 0,3 C 0,9 C 0,0 km/h (0 Bft)
_ Max-Zeit 15:10 09:55 20:25 17:45 12:30 - - 15:20 17:45 13:00 10:40 12:50 15:10 13:00
Maximum _ 11,7 C 97 % 1007,7 hPa 0,0 mm 9,6 km/h
O-SO (2 Bft)
- - 5 min 0 min 0,9 UV-I 603 W/m 7,3 C 11,7 C 16,1 km/h
O-SO (3 Bft)
Durchschnitt _ 5,2 C 91 % 1006,8 hPa #0,0 mm 1,3 km/h (1 Bft) O-NO - #5:40 h #0 min. 0,6 UV-I 163 W/m 3,8 C 5,2 C 2,9 km/h (1 Bft)